Location: Kerangoff
(48.3422°N, 4.6070°W)
Time: 14:50:52
(UTC+00:00)

Daily predictions for brighter satellites

Satellite Brightness Start Highest point End
(mag) Time Altitude Azimuth Time Altitude Azimuth Time Altitude Azimuth
Radarsat Rocket 4.2 16:53:07 10° SE 16:59:02 62° ENE 17:05:38 10° NNW
Cosmos 841 Rocket 3.6 16:54:17 10° SSW 16:59:32 84° WNW 17:04:47 10° NNE
H-2A R/B 2.6 16:55:35 10° SSE 16:59:49 57° ENE 17:03:56 10° N
COSMOS 2428 2.8 16:56:06 10° SSW 17:01:50 85° ESE 17:07:37 10° NNE
SL-24 R/B - RUBIN 2 4.4 16:58:19 10° NW 17:04:45 73° NE 17:10:28 10° SE
Cosmos 2278 Rocket 2.2 16:59:13 10° NNW 17:04:55 74° ENE 17:10:36 10° SSE
Envisat 3.0 17:00:56 10° SSE 17:05:59 72° ENE 17:11:05 10° N
SJ-7 4.4 17:06:17 10° SSE 17:10:17 89° W 17:14:18 10° NNW
NOAA 12 4.3 17:05:43 10° SE 17:10:51 50° ENE 17:15:59 10° N
ERS-2 3.9 17:09:27 10° ENE 17:11:33 14° E 17:13:37 10° SE
Cosmos 1743 Rocket 3.6 17:07:32 10° N 17:12:02 75° E 17:16:29 10° SSE
COSMO-SKYMED 1 4.3 17:11:29 10° ENE 17:13:38 13° E 17:15:49 10° ESE
Cosmos 482 Debris 3.8 17:12:12 10° WNW 17:13:47 24° N 17:15:06 12° ENE
USA 281 4.0 17:08:54 10° E 17:14:19 29° NE 17:19:45 10° N
Cosmos 2360 Rocket 3.7 17:10:46 10° WSW 17:15:44 31° NW 17:20:44 10° NNE
Sich 1 3.6 17:14:17 10° N 17:18:20 35° ENE 17:22:20 10° SE
Cosmos 1862 3.3 17:15:45 10° N 17:19:48 76° E 17:23:49 10° SSE
Okean-O 4.2 17:19:20 10° E 17:21:49 15° ENE 17:24:18 10° NNE
Cosmos 2219 Rocket 2.7 17:17:25 10° SW 17:23:00 61° WNW 17:28:37 10° NNE
H-2A R/B 3.7 17:22:12 10° E 17:24:49 14° NE 17:27:23 10° NNE
Cosmos 44 4.2 17:20:48 10° NNW 17:25:34 35° NE 17:30:29 10° ESE
Cosmos 1842 Rocket 3.9 17:21:54 10° SSW 17:26:12 67° WNW 17:30:32 10° N
Cosmos 1814 Rocket 4.4 17:21:08 10° SSW 17:26:26 67° WNW 17:31:44 10° NNE
AQUARIUS 4.2 17:24:49 10° SSE 17:29:14 62° ENE 17:33:42 10° N
Okean O Rocket 1.5 17:26:29 10° SSE 17:30:47 66° ENE 17:35:08 10° N
CZ-4B R/B 3.1 17:25:38 10° SSE 17:30:58 78° ENE 17:36:18 10° NNW
GENESIS II 4.2 17:27:06 10° NW 17:31:06 87° NE 17:34:59 10° SE
Cosmos 1805 Rocket 3.6 17:27:28 10° N 17:31:55 62° ENE 17:36:18 10° SSE
SL-16 R/B 4.4 17:30:17 10° WNW 17:33:35 15° NW 17:36:54 10° N
Cosmos 2237 Rocket 2.2 17:28:28 10° SSW 17:34:00 62° ESE 17:39:35 10° NNE
Cosmos 1151 Rocket 4.3 17:31:25 10° SE 17:34:31 20° E 17:36:52 13° NE
CZ-4C R/B 3.4 17:32:50 10° N 17:36:27 68° WNW 17:40:03 10° SSW
BREEZE-M DEB (TANK) 3.5 17:34:14 10° SSW 17:36:31 22° SSE 17:37:36 15° ESE
NOAA 11 4.2 17:31:22 10° SE 17:36:39 56° ENE 17:41:58 10° N
Nadezhda 1 Rocket 4.0 17:30:27 10° S 17:36:47 82° E 17:43:13 10° N
Cosmos 1666 Rocket 4.1 17:34:08 10° N 17:38:12 36° ENE 17:42:18 10° SE
CZ-4 R/B 2.8 17:38:52 15° E 17:40:09 18° ENE 17:42:51 10° NNE
ADEOS Rocket 3.9 17:32:57 10° NNE 17:40:34 74° WNW 17:48:19 10° SSW
CORIOLIS 4.1 17:38:00 10° SSE 17:43:25 82° ENE 17:48:53 10° NNW
Landsat 5 4.0 17:40:27 10° N 17:44:48 67° WNW 17:49:14 10° SSW
BREEZE-M R/B 4.0 17:39:13 10° WNW 17:44:49 48° SSW 17:47:03 10° SE
Cosmos 2369 Rocket 3.3 17:40:48 10° N 17:45:18 23° NE 17:47:50 17° ENE
YAOGAN 6 3.5 17:41:46 10° S 17:45:20 52° W 17:48:55 10° NNW
FengYun 1-2 T 4.2 17:39:51 10° SSE 17:45:22 70° ENE 17:50:52 10° N
Cosmos 389 Rocket 2.6 17:45:05 10° S 17:48:23 47° E 17:51:15 13° NNE
NOSS 0 Rocket 4.0 17:43:49 10° SSW 17:50:05 84° WNW 17:56:22 10° NNE
Cosmos 1939 Rocket 3.2 17:46:36 10° SE 17:50:13 39° ENE 17:53:52 10° N
Cosmos 2154 Rocket 4.3 17:45:03 10° NNW 17:51:21 72° W 17:57:40 10° S
Cosmos 962 Rocket 4.4 17:45:51 10° N 17:52:10 74° E 17:58:23 10° SSE
Cosmos 1980 3.7 17:46:43 10° SSW 17:52:25 89° ESE 17:58:09 10° NNE
USA 215 3.6 17:50:49 17° ENE 17:55:49 51° SE 18:02:09 10° SSW
H-2A R/B 2.4 17:53:12 10° N 17:57:19 63° WNW 18:01:30 10° SSW
ISS -3.8 17:56:09 10° WSW 17:59:31 87° SSE 18:00:57 32° ENE
Cosmos 2341 Rocket 3.9 17:55:37 10° N 18:01:56 78° E 18:08:15 10° SSE
SKYMED 2 4.1 17:59:06 16° NE 18:02:11 38° E 18:06:14 10° SSE
Cosmos 1867 3.8 17:59:07 10° SSW 18:04:21 52° ESE 18:07:37 23° NE
Cosmos 1633 Rocket 3.0 18:03:44 10° N 18:08:05 58° ENE 18:12:22 10° SSE
CZ-4B R/B 1.0 18:07:34 24° NNE 18:09:15 74° ESE 18:12:20 10° S
Cosmos 1943 Rocket 2.5 18:05:07 10° NNW 18:10:25 43° NE 18:14:17 18° ESE
Cosmos 1356 3.5 18:07:06 10° NNW 18:10:31 74° W 18:13:56 10° S
CZ-2C R/B 3.3 18:07:01 10° SE 18:11:45 40° ENE 18:16:19 10° N
Cosmos 2297 3.6 18:07:37 10° NNW 18:13:19 72° ENE 18:19:01 10° SE
CREW DRAGON DEMO-1 DEB 2.8 18:11:16 10° WNW 18:14:16 72° SSW 18:15:01 45° SE
Cosmos 2285 Rocket 3.9 18:09:50 10° NNW 18:16:15 68° ENE 18:22:35 10° SSE
ARGOS 4.0 18:19:44 27° NE 18:19:44 27° NE 18:23:52 10° N
Cosmos 864 Rocket 4.4 18:15:34 10° N 18:21:53 67° ENE 18:28:07 10° SSE
SL-8 Rocket 3.9 18:16:06 10° N 18:22:21 84° E 18:28:38 10° S
SL-16 R/B 2.3 18:17:07 10° S 18:22:38 56° ESE 18:25:38 27° NE
SL-24 DEB 4.5 18:19:34 10° NNE 18:24:12 47° E 18:28:45 10° SSE
Cosmos 1606 3.3 18:21:02 10° SSW 18:24:52 58° WNW 18:28:45 10° N
Cosmos 1933 3.2 18:21:01 10° S 18:25:02 79° E 18:27:50 20° NNE
SAR-Lupe-4 3.5 18:25:16 53° ENE 18:25:45 60° ESE 18:29:18 10° S
Meteor 1-14 Rocket 4.5 18:20:21 10° N 18:26:07 50° ENE 18:31:54 10° SSE
USA 267 3.2 18:25:00 21° ESE 18:29:41 81° NNE 18:36:15 10° NW
Cosmos 1959 Rocket 4.4 18:24:31 10° N 18:30:56 81° E 18:37:18 10° SSE
Cosmos 2181 Rocket 4.0 18:26:31 10° S 18:32:56 84° E 18:39:22 10° N
SL-24 R/B 3.7 18:32:23 46° NE 18:33:23 65° E 18:37:07 10° S
BREEZE-M DEB (TANK) 2.9 18:33:05 10° W 18:34:32 42° W 18:34:32 42° W
Meteor 1-26 Rocket 4.3 18:29:31 10° S 18:35:26 65° E 18:41:25 10° NNE
Cosmos 1821 Rocket 4.3 18:30:26 10° N 18:36:16 41° ENE 18:38:27 31° ESE
Cosmos 1241 Rocket 4.5 18:31:18 10° NW 18:37:58 80° NE 18:43:15 17° SE
CZ-4 R/B 4.4 18:34:37 10° SSE 18:38:47 86° WSW 18:42:57 10° NNW
YAOGAN 1 2.5 18:38:54 52° ESE 18:39:33 60° ENE 18:43:50 10° N
Cosmos 1782 3.7 18:35:50 10° S 18:38:18 34° SSE 18:38:18 34° SSE
IRS-1C Rocket 4.2 18:35:21 10° SSE 18:40:38 78° WSW 18:45:57 10° NNW
Cosmos 2333 Rocket 4.3 18:37:05 10° W 18:41:14 20° NW 18:45:23 10° N
SAR-Lupe-1 3.9 18:42:48 86° N 18:42:53 89° WNW 18:46:29 10° SSW
PSLV R/B 3.7 18:42:54 69° ESE 18:42:55 69° ESE 18:46:55 10° S
Cosmos 1470 Rocket 3.3 18:40:11 10° N 18:44:32 79° E 18:48:51 10° SSE
ERS-2 3.0 18:43:13 21° N 18:45:21 48° WNW 18:48:53 10° SW
Meteor 1-4 Rocket 4.3 18:42:17 10° S 18:43:44 22° S 18:43:44 22° S
Helios 1A Rocket 2.7 18:47:42 42° SSE 18:49:01 88° ENE 18:53:04 10° NNW
COSMO-SKYMED 1 2.7 18:47:40 23° N 18:50:19 72° WNW 18:54:38 10° SSW
Cosmos 1515 Rocket 4.3 18:49:25 10° S 18:52:12 38° SSE 18:52:12 38° SSE
SL-08 R/B 4.3 18:48:02 10° N 18:54:13 76° E 19:00:19 10° SSE
MOS 1 Rocket 3.6 18:53:21 49° NE 18:54:37 63° E 19:00:00 10° S
Okean-O 2.7 18:53:17 10° S 18:57:42 78° WSW 19:02:10 10° NNW
USA 281 3.3 18:51:42 10° SSE 18:58:15 79° WSW 19:04:52 10° NNW
Cosmos 1602 4.0 18:56:01 10° NNW 19:05:42 - S 18:59:42 66° WNW
CZ-2D R/B 4.2 18:56:16 10° S 18:59:57 48° W 19:03:41 10° NNW
Lacrosse 5 rocket 2.3 18:56:22 10° SW 18:58:35 33° SSW 18:58:35 33° SSW
Cosmos 773 Rocket 3.9 18:55:33 10° SSW 19:00:48 85° ESE 19:01:53 58° NNE
H-2A R/B 1.9 19:01:53 47° SSE 19:03:26 76° ENE 19:08:38 10° N
CSL-04 Debris 4.0 19:02:08 47° SE 19:03:45 73° ENE 19:09:15 10° NNW
Cosmos 44 4.1 19:01:55 10° NW 19:07:05 55° WSW 19:10:20 23° S
Meteor 1-5 Rocket 4.3 19:03:48 10° N 19:09:19 63° NE 19:09:19 63° NE
Cosmos 1151 Rocket 4.1 19:07:40 10° SSW 19:11:45 43° WNW 19:13:46 26° NNW
BREEZE-M DEB (TANK) 4.5 19:05:12 10° SW 19:11:12 33° S 19:11:12 33° S
CZ-4 R/B 2.2 19:14:54 48° W 19:14:54 48° W 19:18:43 10° NNW
Cosmos 2237 Rocket 3.9 19:13:42 10° WSW 19:18:29 28° NW 19:22:01 16° N
CSL-04 Rocket 3.6 19:26:22 79° W 19:26:22 79° W 19:31:35 10° NNW
Cosmos 2369 Rocket 2.2 19:24:19 10° NNW 19:29:41 77° WNW 19:29:41 77° WNW
ISS -0.6 19:33:15 10° WNW 19:33:55 15° WNW 19:33:55 15° WNW
USA 215 3.3 19:38:10 61° NNE 19:38:59 67° NNW 19:45:27 10° WSW
Cosmos 1943 Rocket 3.6 19:49:05 10° NW 19:54:04 35° WSW 19:55:55 27° SW
ARGOS 4.4 20:01:16 36° NW 20:01:16 36° NW 20:04:39 10° NNW
SL-16 R/B 3.7 20:02:07 10° WSW 20:07:05 30° NW 20:07:32 30° NW
USA 267 4.3 20:12:22 36° SW 20:13:06 37° SW 20:19:04 10° WNW
